Location: Fontevrault
(47.1823°N, 0.0493°E)
Time: 08:11:01
(UTC+00:00)

Cosmos 389 Rocket - Pass Details

Date: 16 June 2021
Orbit: 440 x 471 km, 81.1° (Epoch: 26 July)

Event Time Altitude Azimuth Distance (km) Brightness Sun altitude
Rises 23:31:16 0° 337° (NNW) 2,444 7.5 -19.1°
Reaches altitude 10° 23:33:33 10° 324° (NW) 1,570 6.0 -19.2°
Maximum altitude 23:36:24 25° 267° (W) 941 4.0 -19.2°
Enters shadow 23:36:53 24° 253° (WSW) 964 3.9 -19.2°
